Location: Borovka
(49.7741°N, 14.5280°E)
Time: 13:32:19
(UTC+00:00)

BlueWalker 3 - Visible Passes

Search period start: 21 January 2026 00:00
Search period end: 31 January 2026 00:00
Orbit: 451 x 463 km, 53.2° (Epoch: 20 January)

Date Brightness Start Highest point End Pass type
(mag) Time Alt. Az. Time Alt. Az. Time Alt. Az.
21 Jan 3.3 17:23:21 10° S 17:25:58 21° SE 17:25:58 21° SE visible
21 Jan 5.0 18:59:38 10° WSW 18:59:43 10° WSW 18:59:43 10° WSW visible
22 Jan 3.6 16:48:24 10° S 16:50:46 17° SE 16:52:14 14° ESE visible
22 Jan 3.7 18:24:13 10° WSW 18:25:59 27° SW 18:25:59 27° SW visible
23 Jan 3.9 16:13:37 10° SSE 16:15:25 13° SE 16:17:14 10° ESE visible
23 Jan 1.8 17:48:48 10° SW 17:52:09 62° S 17:52:09 62° S visible
24 Jan 2.0 17:13:24 10° SW 17:16:52 52° SSE 17:18:14 31° E visible
24 Jan 4.5 18:50:53 10° W 18:51:58 18° W 18:51:58 18° W visible
25 Jan 2.4 16:38:00 10° SW 16:41:23 42° SE 16:44:14 14° ENE visible
25 Jan 2.8 18:15:18 10° W 18:17:58 44° WNW 18:17:58 44° WNW visible
26 Jan 1.8 17:39:42 10° W 17:43:15 66° NNW 17:43:54 52° NE visible
26 Jan 5.2 19:17:35 10° WNW 19:17:38 10° WNW 19:17:38 10° WNW visible
27 Jan 1.7 17:04:05 10° WSW 17:07:39 75° NNW 17:09:47 23° ENE visible
27 Jan 4.1 18:41:58 10° WNW 18:43:31 23° WNW 18:43:31 23° WNW visible
28 Jan 1.7 16:28:28 10° WSW 16:32:02 86° NNW 16:35:38 10° ENE visible
28 Jan 2.5 18:06:18 10° WNW 18:09:21 44° NNW 18:09:21 44° NNW visible
29 Jan 2.3 17:30:37 10° W 17:34:04 47° N 17:35:09 34° NE visible
29 Jan 4.9 19:08:20 10° WNW 19:08:53 14° WNW 19:08:53 14° WNW visible
30 Jan 2.2 16:54:53 10° W 16:58:23 50° N 17:00:56 17° ENE visible
30 Jan 3.5 18:32:40 10° WNW 18:34:39 29° NW 18:34:39 29° NW visible
